Погода в Сомовке

Россия / Нижегородская область     56°07′56″N   45°43′11″E
темп.,
°C
ветер,
м/с
пор.,
м/с
влажн.,
%
обл.,
%
осадки,
мм/ч
давл.,
гПа
погр.,
м
7 марта, вс
вс700:00−15зюз239772 0.0 101226
03:00−16зюз229839 0.0 101120
06:00−16юз229996 0.0 101022
09:00−12ююз369491 0.1 1008264
12:00−8ю5108899 0.0 1005550
15:00−7ю6129399 0.4 1001911
18:00−6ю61294100 1.6 997882
21:00−5ююз51195100 2.8 994791
8 марта, пн
пн800:00−5ю41095100 0.9 990562
03:00−5юв2797100 2.8 989354
06:00−6зсз81493100 2.2 989867
09:00−8з61375100 2.6 993834
12:00−5з51085100 0.0 996750
15:00−4з478196 0.1 9981142
18:00−8зюз229299 0.1 99932
21:00−10зсз229499 0.1 100125
9 марта, вт
вт900:00−13сз239487 0.0 100230
03:00−13сз269688 0.1 1004164
06:00−16сз269778 0.0 1007138
09:00−14ссз259482 0.1 1009253
12:00−11сз348982 0.0 1010592
15:00−10сз358791 0.1 1012763
18:00−14ссз2595100 0.1 1013125
21:00−17ссз2697100 0.1 1015130
10 марта, ср
ср1000:00−19ссз269897 0.1 1016165
03:00−22ссз369891 0.1 1018176
06:00−26ссз379782 0.0 1019152
09:00−25ссз369572 0.0 1021259
12:00−20ссз359071 0.0 1023515
15:00−17ссз368684 0.0 1023619
18:00−20зсз239483 0.0 102340
21:00−23з369641 0.0 102494
11 марта, чт
чт1100:00−21з389785 0.0 1023218
03:00−22з399887 0.0 1024209
06:00−21з4119685 0.0 1023278
09:00−18з499391 0.0 1023298
12:00−11зсз5108769 0.0 1023451
15:00−8зсз5108353 0.0 1024640
18:00−11з4118874 0.0 1024393
21:00−15з379472 0.0 1025141